Location: ?
(35.4554°N, 139.3092°E)
Time: 21:06:00
(UTC+00:00)

NOSS 3-4 (A) - Pass Details

Date: 21 April 2021
Orbit: 872 x 1340 km, 63.4° (Epoch: 06 May)

Event Time Altitude Azimuth Distance (km) Brightness Sun altitude
Rises 17:57:22 0° 327° (NNW) 3,905 6.7 -23.6°
Reaches altitude 10° 17:59:55 10° 327° (NNW) 3,010 6.1 -23.2°
Maximum altitude 18:07:12 82° 241° (WSW) 1,235 3.8 -22.0°
Drops below altitude 10° 18:15:14 10° 155° (SSE) 3,301 6.2 -20.6°
Sets 18:18:09 0° 154° (SSE) 4,303 6.8 -20.1°
